Погода в Воегурте

Россия / Удмуртская Республика     57°52′58″N   53°04′47″E
темп.,
°C
ветер,
м/с
пор.,
м/с
влажн.,
%
обл.,
%
осадки,
мм/ч
давл.,
гПа
погр.,
м
17 мая, вт
вт1701:00+9зсз2592100 1.2 997152
04:00+8зсз1195100 4.4 99720
07:00+9зюз1193100 1.2 99735
10:00+10ссз3592100 2.1 998276
13:00+10ссз2485100 1.2 999392
16:00+11с3376100 1.2 999628
19:00+10ссв238286 0.0 999394
22:00+7ссв2595100 0.1 1000135
18 мая, ср
ср1801:00+8с369291 0.0 999300
04:00+8св3696100 0.1 998398
07:00+6св4795100 0.8 999506
10:00+5ссв4694100 1.9 999427
13:00+4с5797100 0.6 1000347
16:00+2с4898100 2.3 1001357
19:00+3ссз41098100 1.2 1002472
22:00+4с3897100 1.3 1003654
19 мая, чт
чт1901:00+4ссз4896100 0.1 1002649
04:00+1зсз379690 0.2 1003193
07:00+3зсз3584100 0.0 1004300
10:00+6зсз5669100 0.3 10041253
13:00+6зсз5670100 0.5 10051267
16:00+6сз4668100 1.2 10051244
19:00+6сз357399 0.2 1005662
22:00+2з229273 0.3 100632
20 мая, пт
пт2001:00+1з249312 0.1 100675
04:000з36955 0.1 1006115
07:00+3зсз47825 0.0 1006415
10:00+7зсз676693 0.3 10061368
13:00+6сз7876100 0.4 10071159
16:00+4сз5894100 0.8 1008581
19:00+2сз41098100 0.8 1008508
22:00+2ссз61198100 1.8 1008568
21 мая, сб
сб2101:00+2сз51298100 1.1 1006740
04:00+1ссз61197100 1.9 1006775
07:00+1сз51199100 0.7 1006527
10:00+2ссз61196100 1.9 1005747
13:00+2ссз61297100 1.3 1005709
16:00+2ссз61297100 2.2 1006684
19:00+2ссз51298100 0.4 1008734
22:00+2с51098100 0.4 1008794